#datetime,building,power
2022-07-15T00:00:00,mcc,62.79
2022-07-15T00:01:00,mcc,64.27
2022-07-15T00:02:00,mcc,60.29
2022-07-15T00:03:00,mcc,69.02
2022-07-15T00:04:00,mcc,59.41
2022-07-15T00:05:00,mcc,58.95
2022-07-15T00:06:00,mcc,58.17
2022-07-15T00:07:00,mcc,57.20
2022-07-15T00:08:00,mcc,56.10
2022-07-15T00:09:00,mcc,57.42
2022-07-15T00:10:00,mcc,58.44
2022-07-15T00:11:00,mcc,58.68
2022-07-15T00:12:00,mcc,59.10
2022-07-15T00:13:00,mcc,68.75
2022-07-15T00:14:00,mcc,56.92
2022-07-15T00:15:00,mcc,54.74
2022-07-15T00:16:00,mcc,56.05
2022-07-15T00:17:00,mcc,56.20
2022-07-15T00:18:00,mcc,58.62
2022-07-15T00:19:00,mcc,58.19
2022-07-15T00:20:00,mcc,62.61
2022-07-15T00:21:00,mcc,59.52
2022-07-15T00:22:00,mcc,56.77
2022-07-15T00:23:00,mcc,56.17
2022-07-15T00:24:00,mcc,65.98
2022-07-15T00:25:00,mcc,55.34
2022-07-15T00:26:00,mcc,53.93
2022-07-15T00:27:00,mcc,50.13
2022-07-15T00:28:00,mcc,49.20
2022-07-15T00:29:00,mcc,47.87
2022-07-15T00:30:00,mcc,48.90
2022-07-15T00:31:00,mcc,46.82
2022-07-15T00:32:00,mcc,57.00
2022-07-15T00:33:00,mcc,46.68
2022-07-15T00:34:00,mcc,47.13
2022-07-15T00:35:00,mcc,47.09
2022-07-15T00:36:00,mcc,49.94
2022-07-15T00:37:00,mcc,52.64
2022-07-15T00:38:00,mcc,50.62
2022-07-15T00:39:00,mcc,52.26
2022-07-15T00:40:00,mcc,50.15
2022-07-15T00:41:00,mcc,48.89
2022-07-15T00:42:00,mcc,48.32
2022-07-15T00:43:00,mcc,48.64
2022-07-15T00:44:00,mcc,49.03
2022-07-15T00:45:00,mcc,47.79
2022-07-15T00:46:00,mcc,48.68
2022-07-15T00:47:00,mcc,47.69
2022-07-15T00:48:00,mcc,49.09
2022-07-15T00:49:00,mcc,53.35
2022-07-15T00:50:00,mcc,48.63
2022-07-15T00:51:00,mcc,48.75
2022-07-15T00:52:00,mcc,48.19
2022-07-15T00:53:00,mcc,47.67
2022-07-15T00:54:00,mcc,49.24
2022-07-15T00:55:00,mcc,45.10
2022-07-15T00:56:00,mcc,49.24
2022-07-15T00:57:00,mcc,44.49
2022-07-15T00:58:00,mcc,44.09
2022-07-15T00:59:00,mcc,43.85
2022-07-15T01:00:00,mcc,43.40
2022-07-15T01:01:00,mcc,44.71
2022-07-15T01:02:00,mcc,45.54
2022-07-15T01:03:00,mcc,45.69
2022-07-15T01:04:00,mcc,43.91
2022-07-15T01:05:00,mcc,45.87
2022-07-15T01:06:00,mcc,43.29
2022-07-15T01:07:00,mcc,42.28
2022-07-15T01:08:00,mcc,44.42
2022-07-15T01:09:00,mcc,44.37
2022-07-15T01:10:00,mcc,45.90
2022-07-15T01:11:00,mcc,56.95
2022-07-15T01:12:00,mcc,48.77
2022-07-15T01:13:00,mcc,48.73
2022-07-15T01:14:00,mcc,48.84
2022-07-15T01:15:00,mcc,46.96
2022-07-15T01:16:00,mcc,47.23
2022-07-15T01:17:00,mcc,47.07
2022-07-15T01:18:00,mcc,48.96
2022-07-15T01:19:00,mcc,44.65
2022-07-15T01:20:00,mcc,44.57
2022-07-15T01:21:00,mcc,44.14
2022-07-15T01:22:00,mcc,45.70
2022-07-15T01:23:00,mcc,47.41
2022-07-15T01:24:00,mcc,47.35
2022-07-15T01:25:00,mcc,51.25
2022-07-15T01:26:00,mcc,47.19
2022-07-15T01:27:00,mcc,47.04
2022-07-15T01:28:00,mcc,45.97
2022-07-15T01:29:00,mcc,44.66
2022-07-15T01:30:00,mcc,52.61
2022-07-15T01:31:00,mcc,44.13
2022-07-15T01:32:00,mcc,57.90
2022-07-15T01:33:00,mcc,45.13
2022-07-15T01:34:00,mcc,43.24
2022-07-15T01:35:00,mcc,43.39
2022-07-15T01:36:00,mcc,43.87
2022-07-15T01:37:00,mcc,47.15
2022-07-15T01:38:00,mcc,47.96
2022-07-15T01:39:00,mcc,46.76
2022-07-15T01:40:00,mcc,51.63
2022-07-15T01:41:00,mcc,49.35
2022-07-15T01:42:00,mcc,50.03
2022-07-15T01:43:00,mcc,46.70
2022-07-15T01:44:00,mcc,47.94
2022-07-15T01:45:00,mcc,48.78
2022-07-15T01:46:00,mcc,48.40
2022-07-15T01:47:00,mcc,50.78
2022-07-15T01:48:00,mcc,45.18
2022-07-15T01:49:00,mcc,43.33
2022-07-15T01:50:00,mcc,52.53
2022-07-15T01:51:00,mcc,43.09
2022-07-15T01:52:00,mcc,42.61
2022-07-15T01:53:00,mcc,42.33
2022-07-15T01:54:00,mcc,44.68
2022-07-15T01:55:00,mcc,42.49
2022-07-15T01:56:00,mcc,44.77
2022-07-15T01:57:00,mcc,46.39
2022-07-15T01:58:00,mcc,46.08
2022-07-15T01:59:00,mcc,47.60
2022-07-15T02:00:00,mcc,44.95
2022-07-15T02:01:00,mcc,45.31
2022-07-15T02:02:00,mcc,52.89
2022-07-15T02:03:00,mcc,44.54
2022-07-15T02:04:00,mcc,46.87
2022-07-15T02:05:00,mcc,47.07
2022-07-15T02:06:00,mcc,48.99
2022-07-15T02:07:00,mcc,46.80
2022-07-15T02:08:00,mcc,45.74
2022-07-15T02:09:00,mcc,46.43
2022-07-15T02:10:00,mcc,46.49
2022-07-15T02:11:00,mcc,48.26
2022-07-15T02:12:00,mcc,46.64
2022-07-15T02:13:00,mcc,45.90
2022-07-15T02:14:00,mcc,46.76
2022-07-15T02:15:00,mcc,47.04
2022-07-15T02:16:00,mcc,48.23
2022-07-15T02:17:00,mcc,45.28
2022-07-15T02:18:00,mcc,46.48
2022-07-15T02:19:00,mcc,47.02
2022-07-15T02:20:00,mcc,46.56
2022-07-15T02:21:00,mcc,46.32
2022-07-15T02:22:00,mcc,45.07
2022-07-15T02:23:00,mcc,46.65
2022-07-15T02:24:00,mcc,44.51
2022-07-15T02:25:00,mcc,43.82
2022-07-15T02:26:00,mcc,42.96
2022-07-15T02:27:00,mcc,42.98
2022-07-15T02:28:00,mcc,53.12
2022-07-15T02:29:00,mcc,43.40
2022-07-15T02:30:00,mcc,44.64
2022-07-15T02:31:00,mcc,47.42
2022-07-15T02:32:00,mcc,47.51
2022-07-15T02:33:00,mcc,49.83
2022-07-15T02:34:00,mcc,47.82
2022-07-15T02:35:00,mcc,50.10
2022-07-15T02:36:00,mcc,48.57
2022-07-15T02:37:00,mcc,49.83
2022-07-15T02:38:00,mcc,51.31
2022-07-15T02:39:00,mcc,49.63
2022-07-15T02:40:00,mcc,48.14
2022-07-15T02:41:00,mcc,45.59
2022-07-15T02:42:00,mcc,58.42
2022-07-15T02:43:00,mcc,43.98
2022-07-15T02:44:00,mcc,44.72
2022-07-15T02:45:00,mcc,46.69
2022-07-15T02:46:00,mcc,45.63
2022-07-15T02:47:00,mcc,42.85
2022-07-15T02:48:00,mcc,52.08
2022-07-15T02:49:00,mcc,44.69
2022-07-15T02:50:00,mcc,48.29
2022-07-15T02:51:00,mcc,45.74
2022-07-15T02:52:00,mcc,47.44
2022-07-15T02:53:00,mcc,45.83
2022-07-15T02:54:00,mcc,45.31
2022-07-15T02:55:00,mcc,45.77
2022-07-15T02:56:00,mcc,45.42
2022-07-15T02:57:00,mcc,50.13
2022-07-15T02:58:00,mcc,55.95
2022-07-15T02:59:00,mcc,55.06
2022-07-15T03:00:00,mcc,53.94
2022-07-15T03:01:00,mcc,45.73
2022-07-15T03:02:00,mcc,45.46
2022-07-15T03:03:00,mcc,48.03
2022-07-15T03:04:00,mcc,53.42
2022-07-15T03:05:00,mcc,50.42
2022-07-15T03:06:00,mcc,58.82
2022-07-15T03:07:00,mcc,49.15
2022-07-15T03:08:00,mcc,49.29
2022-07-15T03:09:00,mcc,50.52
2022-07-15T03:10:00,mcc,46.40
2022-07-15T03:11:00,mcc,46.53
2022-07-15T03:12:00,mcc,44.79
2022-07-15T03:13:00,mcc,44.24
2022-07-15T03:14:00,mcc,42.94
2022-07-15T03:15:00,mcc,42.11
2022-07-15T03:16:00,mcc,45.91
2022-07-15T03:17:00,mcc,43.62
2022-07-15T03:18:00,mcc,42.89
2022-07-15T03:19:00,mcc,46.10
2022-07-15T03:20:00,mcc,43.31
2022-07-15T03:21:00,mcc,43.54
2022-07-15T03:22:00,mcc,42.80
2022-07-15T03:23:00,mcc,41.61
2022-07-15T03:24:00,mcc,43.40
2022-07-15T03:25:00,mcc,42.18
2022-07-15T03:26:00,mcc,45.29
2022-07-15T03:27:00,mcc,43.46
2022-07-15T03:28:00,mcc,44.98
2022-07-15T03:29:00,mcc,44.33
2022-07-15T03:30:00,mcc,44.85
2022-07-15T03:31:00,mcc,47.63
2022-07-15T03:32:00,mcc,46.49
2022-07-15T03:33:00,mcc,47.47
2022-07-15T03:34:00,mcc,45.72
2022-07-15T03:35:00,mcc,48.28
2022-07-15T03:36:00,mcc,46.40
2022-07-15T03:37:00,mcc,46.41
2022-07-15T03:38:00,mcc,49.75
2022-07-15T03:39:00,mcc,46.19
2022-07-15T03:40:00,mcc,48.55
2022-07-15T03:41:00,mcc,47.29
2022-07-15T03:42:00,mcc,48.14
2022-07-15T03:43:00,mcc,59.47
2022-07-15T03:44:00,mcc,58.96
2022-07-15T03:45:00,mcc,47.65
2022-07-15T03:46:00,mcc,54.01
2022-07-15T03:47:00,mcc,45.77
2022-07-15T03:48:00,mcc,47.90
2022-07-15T03:49:00,mcc,49.23
2022-07-15T03:50:00,mcc,47.41
2022-07-15T03:51:00,mcc,46.35
2022-07-15T03:52:00,mcc,44.07
2022-07-15T03:53:00,mcc,46.90
2022-07-15T03:54:00,mcc,42.81
2022-07-15T03:55:00,mcc,47.34
2022-07-15T03:56:00,mcc,46.60
2022-07-15T03:57:00,mcc,47.45
2022-07-15T03:58:00,mcc,46.61
2022-07-15T03:59:00,mcc,48.29
2022-07-15T04:00:00,mcc,49.07
2022-07-15T04:01:00,mcc,48.34
2022-07-15T04:02:00,mcc,48.27
2022-07-15T04:03:00,mcc,48.57
2022-07-15T04:04:00,mcc,47.13
2022-07-15T04:05:00,mcc,53.91
2022-07-15T04:06:00,mcc,46.80
2022-07-15T04:07:00,mcc,46.29
2022-07-15T04:08:00,mcc,46.72
2022-07-15T04:09:00,mcc,46.09
2022-07-15T04:10:00,mcc,45.33
2022-07-15T04:11:00,mcc,44.65
2022-07-15T04:12:00,mcc,45.82
2022-07-15T04:13:00,mcc,43.93
2022-07-15T04:14:00,mcc,46.43
2022-07-15T04:15:00,mcc,44.63
2022-07-15T04:16:00,mcc,44.90
2022-07-15T04:17:00,mcc,46.37
2022-07-15T04:18:00,mcc,42.50
2022-07-15T04:19:00,mcc,42.57
2022-07-15T04:20:00,mcc,43.55
2022-07-15T04:21:00,mcc,44.75
2022-07-15T04:22:00,mcc,40.07
2022-07-15T04:23:00,mcc,39.86
2022-07-15T04:24:00,mcc,38.81
2022-07-15T04:25:00,mcc,38.35
2022-07-15T04:26:00,mcc,37.47
2022-07-15T04:27:00,mcc,38.09
2022-07-15T04:28:00,mcc,40.39
2022-07-15T04:29:00,mcc,42.60
2022-07-15T04:30:00,mcc,38.44
2022-07-15T04:31:00,mcc,37.58
2022-07-15T04:32:00,mcc,37.78
2022-07-15T04:33:00,mcc,37.88
2022-07-15T04:34:00,mcc,40.86
2022-07-15T04:35:00,mcc,36.36
2022-07-15T04:36:00,mcc,38.40
2022-07-15T04:37:00,mcc,37.05
2022-07-15T04:38:00,mcc,38.37
2022-07-15T04:39:00,mcc,38.12
2022-07-15T04:40:00,mcc,40.90
2022-07-15T04:41:00,mcc,41.70
2022-07-15T04:42:00,mcc,39.54
2022-07-15T04:43:00,mcc,38.02
2022-07-15T04:44:00,mcc,48.92
2022-07-15T04:45:00,mcc,44.50
2022-07-15T04:46:00,mcc,45.81
2022-07-15T04:47:00,mcc,44.32
2022-07-15T04:48:00,mcc,47.06
2022-07-15T04:49:00,mcc,36.89
2022-07-15T04:50:00,mcc,38.16
2022-07-15T04:51:00,mcc,36.73
2022-07-15T04:52:00,mcc,36.96
2022-07-15T04:53:00,mcc,36.87
2022-07-15T04:54:00,mcc,36.61
2022-07-15T04:55:00,mcc,37.41
2022-07-15T04:56:00,mcc,38.34
2022-07-15T04:57:00,mcc,41.64
2022-07-15T04:58:00,mcc,43.30
2022-07-15T04:59:00,mcc,41.43
2022-07-15T05:00:00,mcc,41.65
2022-07-15T05:01:00,mcc,41.56
2022-07-15T05:02:00,mcc,47.67
2022-07-15T05:03:00,mcc,40.84
2022-07-15T05:04:00,mcc,36.72
2022-07-15T05:05:00,mcc,38.39
2022-07-15T05:06:00,mcc,36.36
2022-07-15T05:07:00,mcc,36.16
2022-07-15T05:08:00,mcc,36.49
2022-07-15T05:09:00,mcc,35.57
2022-07-15T05:10:00,mcc,38.12
2022-07-15T05:11:00,mcc,35.33
2022-07-15T05:12:00,mcc,36.12
2022-07-15T05:13:00,mcc,37.64
2022-07-15T05:14:00,mcc,38.34
2022-07-15T05:15:00,mcc,39.15
2022-07-15T05:16:00,mcc,37.52
2022-07-15T05:17:00,mcc,38.41
2022-07-15T05:18:00,mcc,36.77
2022-07-15T05:19:00,mcc,37.76
2022-07-15T05:20:00,mcc,38.11
2022-07-15T05:21:00,mcc,38.62
2022-07-15T05:22:00,mcc,39.39
2022-07-15T05:23:00,mcc,36.70
2022-07-15T05:24:00,mcc,36.86
2022-07-15T05:25:00,mcc,36.14
2022-07-15T05:26:00,mcc,35.16
2022-07-15T05:27:00,mcc,37.56
2022-07-15T05:28:00,mcc,34.16
2022-07-15T05:29:00,mcc,34.85
2022-07-15T05:30:00,mcc,34.73
2022-07-15T05:31:00,mcc,34.48
2022-07-15T05:32:00,mcc,40.62
2022-07-15T05:33:00,mcc,37.82
2022-07-15T05:34:00,mcc,38.37
2022-07-15T05:35:00,mcc,35.58
2022-07-15T05:36:00,mcc,36.52
2022-07-15T05:37:00,mcc,37.26
2022-07-15T05:38:00,mcc,37.46
2022-07-15T05:39:00,mcc,40.05
2022-07-15T05:40:00,mcc,45.88
2022-07-15T05:41:00,mcc,37.72
2022-07-15T05:42:00,mcc,37.11
2022-07-15T05:43:00,mcc,35.38
2022-07-15T05:44:00,mcc,36.93
2022-07-15T05:45:00,mcc,37.57
2022-07-15T05:46:00,mcc,38.55
2022-07-15T05:47:00,mcc,37.79
2022-07-15T05:48:00,mcc,38.32
2022-07-15T05:49:00,mcc,39.50
2022-07-15T05:50:00,mcc,51.41
2022-07-15T05:51:00,mcc,43.19
2022-07-15T05:52:00,mcc,40.30
2022-07-15T05:53:00,mcc,39.88
2022-07-15T05:54:00,mcc,39.12
2022-07-15T05:55:00,mcc,38.28
2022-07-15T05:56:00,mcc,41.31
2022-07-15T05:57:00,mcc,38.70
2022-07-15T05:58:00,mcc,41.41
2022-07-15T05:59:00,mcc,39.90
2022-07-15T06:00:00,mcc,47.94
2022-07-15T06:01:00,mcc,40.10
2022-07-15T06:02:00,mcc,35.49
2022-07-15T06:03:00,mcc,35.76
2022-07-15T06:04:00,mcc,35.59
2022-07-15T06:05:00,mcc,37.82
2022-07-15T06:06:00,mcc,48.63
2022-07-15T06:07:00,mcc,59.74
2022-07-15T06:08:00,mcc,64.99
2022-07-15T06:09:00,mcc,61.14
2022-07-15T06:10:00,mcc,62.63
2022-07-15T06:11:00,mcc,64.77
2022-07-15T06:12:00,mcc,64.80
2022-07-15T06:13:00,mcc,68.05
2022-07-15T06:14:00,mcc,63.40
2022-07-15T06:15:00,mcc,65.80
2022-07-15T06:16:00,mcc,66.20
2022-07-15T06:17:00,mcc,66.01
2022-07-15T06:18:00,mcc,67.76
2022-07-15T06:19:00,mcc,68.08
2022-07-15T06:20:00,mcc,58.70
2022-07-15T06:21:00,mcc,57.52
2022-07-15T06:22:00,mcc,57.34
2022-07-15T06:23:00,mcc,56.99
2022-07-15T06:24:00,mcc,67.10
2022-07-15T06:25:00,mcc,55.01
2022-07-15T06:26:00,mcc,51.96
2022-07-15T06:27:00,mcc,50.02
2022-07-15T06:28:00,mcc,50.45
2022-07-15T06:29:00,mcc,58.70
2022-07-15T06:30:00,mcc,53.61
2022-07-15T06:31:00,mcc,51.55
2022-07-15T06:32:00,mcc,53.66
2022-07-15T06:33:00,mcc,52.39
2022-07-15T06:34:00,mcc,52.43
2022-07-15T06:35:00,mcc,61.25
2022-07-15T06:36:00,mcc,52.44
2022-07-15T06:37:00,mcc,54.22
2022-07-15T06:38:00,mcc,54.34
2022-07-15T06:39:00,mcc,52.03
2022-07-15T06:40:00,mcc,56.29
2022-07-15T06:41:00,mcc,53.17
2022-07-15T06:42:00,mcc,53.45
2022-07-15T06:43:00,mcc,56.14
2022-07-15T06:44:00,mcc,55.74
2022-07-15T06:45:00,mcc,54.96
2022-07-15T06:46:00,mcc,54.21
2022-07-15T06:47:00,mcc,54.63
2022-07-15T06:48:00,mcc,50.75
2022-07-15T06:49:00,mcc,58.20
2022-07-15T06:50:00,mcc,64.25
2022-07-15T06:51:00,mcc,51.35
2022-07-15T06:52:00,mcc,61.48
2022-07-15T06:53:00,mcc,51.53
2022-07-15T06:54:00,mcc,49.46
2022-07-15T06:55:00,mcc,47.47
2022-07-15T06:56:00,mcc,47.26
2022-07-15T06:57:00,mcc,47.27
2022-07-15T06:58:00,mcc,55.42
2022-07-15T06:59:00,mcc,54.12
2022-07-15T07:00:00,mcc,51.20
2022-07-15T07:01:00,mcc,58.55
2022-07-15T07:02:00,mcc,58.45
2022-07-15T07:03:00,mcc,56.71
2022-07-15T07:04:00,mcc,67.56
2022-07-15T07:05:00,mcc,57.48
2022-07-15T07:06:00,mcc,58.35
2022-07-15T07:07:00,mcc,58.44
2022-07-15T07:08:00,mcc,58.28
2022-07-15T07:09:00,mcc,57.89
2022-07-15T07:10:00,mcc,64.14
2022-07-15T07:11:00,mcc,55.08
2022-07-15T07:12:00,mcc,55.73
2022-07-15T07:13:00,mcc,55.63
2022-07-15T07:14:00,mcc,60.05
2022-07-15T07:15:00,mcc,62.50
2022-07-15T07:16:00,mcc,62.38
2022-07-15T07:17:00,mcc,55.68
2022-07-15T07:18:00,mcc,57.19
2022-07-15T07:19:00,mcc,59.28
2022-07-15T07:20:00,mcc,57.30
2022-07-15T07:21:00,mcc,70.43
2022-07-15T07:22:00,mcc,75.58
2022-07-15T07:23:00,mcc,65.35
2022-07-15T07:24:00,mcc,55.64
2022-07-15T07:25:00,mcc,54.56
2022-07-15T07:26:00,mcc,56.47
2022-07-15T07:27:00,mcc,55.49
2022-07-15T07:28:00,mcc,76.28
2022-07-15T07:29:00,mcc,57.61
2022-07-15T07:30:00,mcc,58.30
2022-07-15T07:31:00,mcc,57.70
2022-07-15T07:32:00,mcc,57.35
2022-07-15T07:33:00,mcc,68.25
2022-07-15T07:34:00,mcc,80.86
2022-07-15T07:35:00,mcc,60.64
2022-07-15T07:36:00,mcc,62.72
2022-07-15T07:37:00,mcc,60.48
2022-07-15T07:38:00,mcc,66.69
2022-07-15T07:39:00,mcc,62.20
2022-07-15T07:40:00,mcc,73.30
2022-07-15T07:41:00,mcc,63.84
2022-07-15T07:42:00,mcc,64.19
2022-07-15T07:43:00,mcc,66.40
2022-07-15T07:44:00,mcc,62.77
2022-07-15T07:45:00,mcc,59.85
2022-07-15T07:46:00,mcc,57.62
2022-07-15T07:47:00,mcc,58.41
2022-07-15T07:48:00,mcc,60.05
2022-07-15T07:49:00,mcc,59.15
2022-07-15T07:50:00,mcc,62.52
2022-07-15T07:51:00,mcc,61.63
2022-07-15T07:52:00,mcc,72.47
2022-07-15T07:53:00,mcc,60.36
2022-07-15T07:54:00,mcc,60.31
2022-07-15T07:55:00,mcc,64.63
2022-07-15T07:56:00,mcc,62.92
2022-07-15T07:57:00,mcc,61.41
2022-07-15T07:58:00,mcc,68.06
2022-07-15T07:59:00,mcc,60.56
2022-07-15T08:00:00,mcc,61.41
2022-07-15T08:01:00,mcc,63.15
2022-07-15T08:02:00,mcc,64.57
2022-07-15T08:03:00,mcc,62.22
2022-07-15T08:04:00,mcc,68.50
2022-07-15T08:05:00,mcc,63.38
2022-07-15T08:06:00,mcc,64.05
2022-07-15T08:07:00,mcc,66.45
2022-07-15T08:08:00,mcc,63.90
2022-07-15T08:09:00,mcc,65.28
2022-07-15T08:10:00,mcc,74.49
2022-07-15T08:11:00,mcc,91.91
2022-07-15T08:12:00,mcc,65.43
2022-07-15T08:13:00,mcc,62.75
2022-07-15T08:14:00,mcc,62.52
2022-07-15T08:15:00,mcc,60.10
2022-07-15T08:16:00,mcc,68.13
2022-07-15T08:17:00,mcc,60.13
2022-07-15T08:18:00,mcc,60.19
2022-07-15T08:19:00,mcc,61.79
2022-07-15T08:20:00,mcc,59.82
2022-07-15T08:21:00,mcc,63.80
2022-07-15T08:22:00,mcc,63.25
2022-07-15T08:23:00,mcc,62.09
2022-07-15T08:24:00,mcc,63.94
2022-07-15T08:25:00,mcc,73.07
2022-07-15T08:26:00,mcc,60.22
2022-07-15T08:27:00,mcc,61.55
2022-07-15T08:28:00,mcc,61.83
2022-07-15T08:29:00,mcc,64.22
2022-07-15T08:30:00,mcc,70.10
2022-07-15T08:31:00,mcc,62.44
2022-07-15T08:32:00,mcc,59.48
2022-07-15T08:33:00,mcc,60.21
2022-07-15T08:34:00,mcc,68.96
2022-07-15T08:35:00,mcc,60.98
2022-07-15T08:36:00,mcc,62.16
2022-07-15T08:37:00,mcc,60.14
2022-07-15T08:38:00,mcc,61.12
2022-07-15T08:39:00,mcc,61.81
2022-07-15T08:40:00,mcc,70.37
2022-07-15T08:41:00,mcc,63.59
2022-07-15T08:42:00,mcc,61.17
2022-07-15T08:43:00,mcc,60.58
2022-07-15T08:44:00,mcc,59.34
2022-07-15T08:45:00,mcc,58.26
2022-07-15T08:46:00,mcc,65.94
2022-07-15T08:47:00,mcc,60.93
2022-07-15T08:48:00,mcc,63.37
2022-07-15T08:49:00,mcc,61.94
2022-07-15T08:50:00,mcc,62.21
2022-07-15T08:51:00,mcc,63.04
2022-07-15T08:52:00,mcc,68.69
2022-07-15T08:53:00,mcc,62.76
2022-07-15T08:54:00,mcc,60.52
2022-07-15T08:55:00,mcc,59.88
2022-07-15T08:56:00,mcc,61.11
2022-07-15T08:57:00,mcc,60.47
2022-07-15T08:58:00,mcc,65.09
2022-07-15T08:59:00,mcc,63.20
2022-07-15T09:00:00,mcc,65.77
2022-07-15T09:01:00,mcc,63.09
2022-07-15T09:02:00,mcc,63.99
2022-07-15T09:03:00,mcc,66.19
2022-07-15T09:04:00,mcc,63.36
2022-07-15T09:05:00,mcc,67.19
2022-07-15T09:06:00,mcc,61.72
2022-07-15T09:07:00,mcc,61.87
2022-07-15T09:08:00,mcc,62.18
2022-07-15T09:09:00,mcc,63.62
2022-07-15T09:10:00,mcc,63.77
2022-07-15T09:11:00,mcc,60.60
2022-07-15T09:12:00,mcc,60.73
2022-07-15T09:13:00,mcc,60.63
2022-07-15T09:14:00,mcc,63.75
2022-07-15T09:15:00,mcc,64.57
2022-07-15T09:16:00,mcc,62.36
2022-07-15T09:17:00,mcc,62.64
2022-07-15T09:18:00,mcc,59.91
2022-07-15T09:19:00,mcc,60.69
2022-07-15T09:20:00,mcc,60.98
2022-07-15T09:21:00,mcc,60.59
2022-07-15T09:22:00,mcc,61.66
2022-07-15T09:23:00,mcc,66.03
2022-07-15T09:24:00,mcc,63.45
2022-07-15T09:25:00,mcc,64.93
2022-07-15T09:26:00,mcc,72.42
2022-07-15T09:27:00,mcc,68.64
2022-07-15T09:28:00,mcc,60.92
2022-07-15T09:29:00,mcc,68.89
2022-07-15T09:30:00,mcc,63.71
2022-07-15T09:31:00,mcc,61.99
2022-07-15T09:32:00,mcc,62.44
2022-07-15T09:33:00,mcc,61.28
2022-07-15T09:34:00,mcc,62.22
2022-07-15T09:35:00,mcc,70.36
2022-07-15T09:36:00,mcc,64.42
2022-07-15T09:37:00,mcc,65.94
2022-07-15T09:38:00,mcc,60.52
2022-07-15T09:39:00,mcc,63.80
2022-07-15T09:40:00,mcc,61.69
2022-07-15T09:41:00,mcc,71.18
2022-07-15T09:42:00,mcc,65.72
2022-07-15T09:43:00,mcc,64.64
2022-07-15T09:44:00,mcc,74.09
2022-07-15T09:45:00,mcc,75.23
2022-07-15T09:46:00,mcc,64.91
2022-07-15T09:47:00,mcc,69.53
2022-07-15T09:48:00,mcc,62.40
2022-07-15T09:49:00,mcc,62.76
2022-07-15T09:50:00,mcc,60.81
2022-07-15T09:51:00,mcc,59.79
2022-07-15T09:52:00,mcc,56.33
2022-07-15T09:53:00,mcc,65.34
2022-07-15T09:54:00,mcc,59.57
2022-07-15T09:55:00,mcc,62.79
2022-07-15T09:56:00,mcc,66.71
2022-07-15T09:57:00,mcc,64.84
2022-07-15T09:58:00,mcc,67.03
2022-07-15T09:59:00,mcc,72.01
2022-07-15T10:00:00,mcc,66.14
2022-07-15T10:01:00,mcc,65.58
2022-07-15T10:02:00,mcc,64.82
2022-07-15T10:03:00,mcc,73.79
2022-07-15T10:04:00,mcc,65.19
2022-07-15T10:05:00,mcc,73.74
2022-07-15T10:06:00,mcc,68.10
2022-07-15T10:07:00,mcc,64.31
2022-07-15T10:08:00,mcc,65.20
2022-07-15T10:09:00,mcc,65.50
2022-07-15T10:10:00,mcc,64.89
2022-07-15T10:11:00,mcc,72.73
2022-07-15T10:12:00,mcc,62.69
2022-07-15T10:13:00,mcc,63.00
2022-07-15T10:14:00,mcc,59.09
2022-07-15T10:15:00,mcc,59.80
2022-07-15T10:16:00,mcc,60.74
2022-07-15T10:17:00,mcc,69.31
2022-07-15T10:18:00,mcc,62.57
2022-07-15T10:19:00,mcc,58.54
2022-07-15T10:20:00,mcc,58.90
2022-07-15T10:21:00,mcc,59.18
2022-07-15T10:22:00,mcc,59.23
2022-07-15T10:23:00,mcc,66.94
2022-07-15T10:24:00,mcc,60.44
2022-07-15T10:25:00,mcc,60.10
2022-07-15T10:26:00,mcc,56.63
2022-07-15T10:27:00,mcc,59.88
2022-07-15T10:28:00,mcc,60.80
2022-07-15T10:29:00,mcc,68.40
2022-07-15T10:30:00,mcc,62.90
2022-07-15T10:31:00,mcc,62.67
2022-07-15T10:32:00,mcc,63.80
2022-07-15T10:33:00,mcc,75.79
2022-07-15T10:34:00,mcc,63.53
2022-07-15T10:35:00,mcc,65.32
2022-07-15T10:36:00,mcc,60.37
2022-07-15T10:37:00,mcc,62.71
2022-07-15T10:38:00,mcc,60.64
2022-07-15T10:39:00,mcc,61.93
2022-07-15T10:40:00,mcc,59.88
2022-07-15T10:41:00,mcc,69.98
2022-07-15T10:42:00,mcc,61.16
2022-07-15T10:43:00,mcc,60.89
2022-07-15T10:44:00,mcc,72.35
2022-07-15T10:45:00,mcc,61.38
2022-07-15T10:46:00,mcc,62.98
2022-07-15T10:47:00,mcc,71.32
2022-07-15T10:48:00,mcc,61.36
2022-07-15T10:49:00,mcc,62.50
2022-07-15T10:50:00,mcc,60.49
2022-07-15T10:51:00,mcc,60.44
2022-07-15T10:52:00,mcc,60.34
2022-07-15T10:53:00,mcc,70.11
2022-07-15T10:54:00,mcc,64.27
2022-07-15T10:55:00,mcc,62.72
2022-07-15T10:56:00,mcc,64.64
2022-07-15T10:57:00,mcc,61.75
2022-07-15T10:58:00,mcc,62.06
2022-07-15T10:59:00,mcc,78.13
2022-07-15T11:00:00,mcc,66.13
2022-07-15T11:01:00,mcc,65.22
2022-07-15T11:02:00,mcc,81.31
2022-07-15T11:03:00,mcc,66.35
2022-07-15T11:04:00,mcc,67.50
2022-07-15T11:05:00,mcc,66.07
2022-07-15T11:06:00,mcc,71.34
2022-07-15T11:07:00,mcc,62.65
2022-07-15T11:08:00,mcc,64.73
2022-07-15T11:09:00,mcc,61.99
2022-07-15T11:10:00,mcc,61.48
2022-07-15T11:11:00,mcc,62.01
2022-07-15T11:12:00,mcc,64.32
2022-07-15T11:13:00,mcc,55.47
2022-07-15T11:14:00,mcc,55.82
2022-07-15T11:15:00,mcc,57.37
2022-07-15T11:16:00,mcc,62.25
2022-07-15T11:17:00,mcc,62.07
2022-07-15T11:18:00,mcc,81.84
2022-07-15T11:19:00,mcc,64.42
2022-07-15T11:20:00,mcc,64.23
2022-07-15T11:21:00,mcc,63.94
2022-07-15T11:22:00,mcc,64.36
2022-07-15T11:23:00,mcc,66.98
2022-07-15T11:24:00,mcc,67.88
2022-07-15T11:25:00,mcc,65.40
2022-07-15T11:26:00,mcc,61.36
2022-07-15T11:27:00,mcc,61.03
2022-07-15T11:28:00,mcc,63.84
2022-07-15T11:29:00,mcc,64.54
2022-07-15T11:30:00,mcc,68.13
2022-07-15T11:31:00,mcc,61.67
2022-07-15T11:32:00,mcc,72.11
2022-07-15T11:33:00,mcc,68.54
2022-07-15T11:34:00,mcc,61.03
2022-07-15T11:35:00,mcc,63.80
2022-07-15T11:36:00,mcc,63.35
2022-07-15T11:37:00,mcc,80.28
2022-07-15T11:38:00,mcc,60.00
2022-07-15T11:39:00,mcc,58.71
2022-07-15T11:40:00,mcc,61.59
2022-07-15T11:41:00,mcc,59.76
2022-07-15T11:42:00,mcc,59.27
2022-07-15T11:43:00,mcc,61.97
2022-07-15T11:44:00,mcc,59.51
2022-07-15T11:45:00,mcc,62.41
2022-07-15T11:46:00,mcc,63.02
2022-07-15T11:47:00,mcc,87.75
2022-07-15T11:48:00,mcc,74.70
2022-07-15T11:49:00,mcc,74.00
2022-07-15T11:50:00,mcc,78.96
2022-07-15T11:51:00,mcc,63.30
2022-07-15T11:52:00,mcc,63.43
2022-07-15T11:53:00,mcc,64.03
2022-07-15T11:54:00,mcc,65.87
2022-07-15T11:55:00,mcc,69.78
2022-07-15T11:56:00,mcc,70.56
2022-07-15T11:57:00,mcc,68.13
2022-07-15T11:58:00,mcc,64.64
2022-07-15T11:59:00,mcc,65.70
2022-07-15T12:00:00,mcc,63.82
2022-07-15T12:01:00,mcc,69.03
2022-07-15T12:02:00,mcc,66.35
2022-07-15T12:03:00,mcc,74.56
2022-07-15T12:04:00,mcc,65.83
2022-07-15T12:05:00,mcc,68.81
2022-07-15T12:06:00,mcc,66.58
2022-07-15T12:07:00,mcc,64.83
2022-07-15T12:08:00,mcc,65.35
2022-07-15T12:09:00,mcc,72.98
2022-07-15T12:10:00,mcc,62.59
2022-07-15T12:11:00,mcc,64.26
2022-07-15T12:12:00,mcc,64.09
2022-07-15T12:13:00,mcc,63.85
2022-07-15T12:14:00,mcc,73.02
2022-07-15T12:15:00,mcc,72.07
2022-07-15T12:16:00,mcc,66.37
2022-07-15T12:17:00,mcc,63.82
2022-07-15T12:18:00,mcc,65.29
2022-07-15T12:19:00,mcc,66.67
2022-07-15T12:20:00,mcc,62.76
2022-07-15T12:21:00,mcc,71.10
2022-07-15T12:22:00,mcc,63.08
2022-07-15T12:23:00,mcc,65.05
2022-07-15T12:24:00,mcc,63.14
2022-07-15T12:25:00,mcc,62.78
2022-07-15T12:26:00,mcc,67.53
2022-07-15T12:27:00,mcc,73.04
2022-07-15T12:28:00,mcc,72.94
2022-07-15T12:29:00,mcc,73.52
2022-07-15T12:30:00,mcc,70.08
2022-07-15T12:31:00,mcc,67.70
2022-07-15T12:32:00,mcc,66.25
2022-07-15T12:33:00,mcc,70.45
2022-07-15T12:34:00,mcc,62.16
2022-07-15T12:35:00,mcc,64.83
2022-07-15T12:36:00,mcc,61.92
2022-07-15T12:37:00,mcc,65.55
2022-07-15T12:38:00,mcc,63.03
2022-07-15T12:39:00,mcc,62.68
2022-07-15T12:40:00,mcc,63.64
2022-07-15T12:41:00,mcc,62.58
2022-07-15T12:42:00,mcc,70.47
2022-07-15T12:43:00,mcc,70.02
2022-07-15T12:44:00,mcc,72.49
2022-07-15T12:45:00,mcc,71.94
2022-07-15T12:46:00,mcc,79.74
2022-07-15T12:47:00,mcc,75.31
2022-07-15T12:48:00,mcc,72.15
2022-07-15T12:49:00,mcc,70.70
2022-07-15T12:50:00,mcc,70.41
2022-07-15T12:51:00,mcc,69.62
2022-07-15T12:52:00,mcc,91.83
2022-07-15T12:53:00,mcc,85.72
2022-07-15T12:54:00,mcc,85.98
2022-07-15T12:55:00,mcc,73.86
2022-07-15T12:56:00,mcc,73.00
2022-07-15T12:57:00,mcc,75.28
2022-07-15T12:58:00,mcc,83.28
2022-07-15T12:59:00,mcc,76.86
2022-07-15T13:00:00,mcc,73.37
2022-07-15T13:01:00,mcc,73.85
2022-07-15T13:02:00,mcc,72.99
2022-07-15T13:03:00,mcc,71.48
2022-07-15T13:04:00,mcc,80.98
2022-07-15T13:05:00,mcc,70.67
2022-07-15T13:06:00,mcc,75.98
2022-07-15T13:07:00,mcc,72.04
2022-07-15T13:08:00,mcc,71.67
2022-07-15T13:09:00,mcc,70.57
2022-07-15T13:10:00,mcc,83.86
2022-07-15T13:11:00,mcc,69.78
2022-07-15T13:12:00,mcc,67.38
2022-07-15T13:13:00,mcc,69.32
2022-07-15T13:14:00,mcc,68.52
2022-07-15T13:15:00,mcc,69.00
2022-07-15T13:16:00,mcc,76.01
2022-07-15T13:17:00,mcc,67.39
2022-07-15T13:18:00,mcc,71.67